Weather in Glinnoye

Russia / Belgorod Oblast     50°50′18″N   37°57′13″E
temp.,
°C
wind,
m/s
gust,
m/s
humid.,
%
clouds,
%
prec.,
mm/h
press.,
hPa
HPBL,
m
24 june, thu
thu2400:00+22ene347628 0.0 101755
03:00+21ene36805 0.0 101891
06:00+22ene38785 0.0 1018145
09:00+27e58625 0.0 1018304
12:00+30e575299 0.0 1018666
15:00+31e565289 0.0 10181154
18:00+30ene36645 0.0 1017278
21:00+24ene36752 0.1 101793
25 june, fri
fri2500:00+22ene34734 0.0 101749
03:00+21ne35825 0.0 101777
06:00+22ene368610 0.0 1017145
09:00+26ene456872 0.0 1016405
12:00+30ene455721 0.0 10161005
15:00+31e455470 0.0 10151418
18:00+30ene35635 0.0 1015448
21:00+25ene22784 0.0 101421
26 june, sat
sat2600:00+23ene22816 0.0 101423
03:00+21e228513 0.4 101424
06:00+22ene248650 1.4 1014116
09:00+26e346994 1.4 1014367
12:00+28e3462100 0.0 1014740
15:00+30ene4455100 0.0 10131098
18:00+29ene356543 0.0 1012391
21:00+24ene23798 0.0 101224
27 june, sun
sun2700:00+23ene22775 0.0 101215
03:00+21ene228049 0.0 101212
06:00+22ene36827 0.0 1013125
09:00+27ene576763 0.0 1012429
12:00+30ene555555 0.0 1011847
15:00+32e565134 0.0 10111160
18:00+30e486429 0.0 1010422
21:00+26ene48765 0.0 1010143
28 june, mon
mon2800:00+24e41076100 0.0 1010178
03:00+23e38725 0.0 1009157
06:00+21e5108277 0.1 1008218
09:00+25sse687580 0.1 1009481
12:00+29s576195 0.0 1009965
15:00+29s56582 0.0 10091438
18:00+28ssw45685 0.0 10091057
21:00+24s237917 0.4 100932